Date String (YYYY-MM-DD hh:mm:ss) UTC,Instrument flags,Ambient pressure (hPa),Sample flow (lpm),Bypass flow (lpm),Sample temperature (°C),Ambient temperature (°C),ASC tube jacket temperature (°C),LED temperature (°C),Box temperature (°C),Sample RH (%),Span deviation,Mass concentration (μg/m³),Mass concentration (μg/m³),Mass concentration (μg/m³)
DateTimeUTC,F1_M11,P_M11,Q1_M11,Q2_M11,T1_M11,T2_M11,T3_M11,T4_M11,T5_M11,U1_M11,ZSPAN_M11,X0_M11,X2_M11,X1_M11
2022-10-18 00:00:00,,0831.0,5.00,0.00,30.6,28.7,00.0,39.3,32.4,11.8,0000.7,0017.15,0007.81,0006.59
2022-10-18 00:01:00,,0831.0,5.00,0.00,30.6,27.1,00.0,39.3,32.2,11.8,0000.7,0017.11,0007.88,0006.67
2022-10-18 00:02:00,,0831.0,5.01,0.00,30.5,26.8,00.0,39.2,32.1,11.8,0000.3,0016.99,0007.93,0006.73
2022-10-18 00:03:00,,0831.0,5.01,0.00,30.4,27.0,00.0,39.2,31.9,12.0,0001.0,0016.93,0007.99,0006.78
2022-10-18 00:04:00,,0831.0,4.98,0.00,30.3,27.4,00.0,39.1,31.9,12.0,0001.4,0017.09,0008.03,0006.83
2022-10-18 00:05:00,,0831.0,5.00,0.00,30.3,27.7,00.0,39.1,31.9,11.9,0000.9,0017.57,0008.09,0006.90
2022-10-18 00:06:00,,0831.0,5.00,0.00,30.3,28.0,00.0,39.1,32.0,11.9,0000.9,0017.92,0008.16,0006.99
2022-10-18 00:07:00,,0831.0,5.00,0.00,30.2,28.2,00.0,39.1,32.0,11.9,0001.0,0018.37,0008.16,0007.03
2022-10-18 00:08:00,,0831.0,5.01,0.00,30.2,28.4,00.0,39.1,32.0,12.0,0000.3,0017.98,0008.16,0007.06
2022-10-18 00:09:00,,0831.0,5.01,0.00,30.2,28.5,00.0,39.1,32.0,11.9,0000.1,0017.32,0008.12,0007.09
2022-10-18 00:10:00,,0831.0,4.99,0.00,30.2,28.6,00.0,39.1,32.0,11.9,0000.2,0017.36,0008.12,0007.10
2022-10-18 00:11:00,,0831.0,5.00,0.00,30.2,28.7,00.0,39.1,32.0,11.9,0000.8,0017.30,0008.13,0007.11
2022-10-18 00:12:00,,0831.0,5.00,0.00,30.2,28.8,00.0,39.1,32.0,11.9,0000.8,0017.39,0008.13,0007.11
2022-10-18 00:13:00,,0831.0,5.00,0.00,30.2,28.8,00.0,39.1,32.0,11.9,0000.4,0017.00,0008.15,0007.13
2022-10-18 00:14:00,,0831.0,5.00,0.00,30.2,28.9,00.0,39.1,32.1,11.9,0000.2,0016.74,0008.16,0007.15
2022-10-18 00:15:00,,0831.0,5.00,0.00,30.3,28.9,00.0,39.1,32.1,11.9,0000.2,0016.54,0008.21,0007.18
2022-10-18 00:16:00,,0831.0,5.00,0.00,30.3,29.0,00.0,39.1,32.1,11.9,0000.2,0017.37,0008.31,0007.18
2022-10-18 00:17:00,,0831.0,5.00,0.00,30.3,29.0,00.0,39.1,32.1,11.9,0000.7,0017.32,0008.32,0007.17
2022-10-18 00:18:00,,0831.0,5.01,0.00,30.3,29.0,00.0,39.1,32.2,11.9,0001.0,0017.58,0008.39,0007.20
2022-10-18 00:19:00,,0831.0,5.00,0.00,30.3,29.1,00.0,39.1,32.2,11.9,0001.3,0018.90,0008.47,0007.24
2022-10-18 00:20:00,,0831.0,5.00,0.00,30.4,29.1,00.0,39.1,32.2,11.9,0001.5,0018.95,0008.48,0007.24
2022-10-18 00:21:00,,0831.0,5.00,0.00,30.4,29.1,00.0,39.1,32.2,11.9,0001.4,0019.30,0008.54,0007.26
2022-10-18 00:22:00,,0831.0,5.00,0.00,30.4,29.1,00.0,39.1,32.2,11.9,0001.2,0019.11,0008.56,0007.30
2022-10-18 00:23:00,,0830.9,4.99,0.00,30.4,29.1,00.0,39.1,32.2,12.0,0001.5,0019.05,0008.56,0007.31
2022-10-18 00:24:00,,0830.9,5.00,0.00,30.4,29.2,00.0,39.1,32.3,12.0,0002.0,0019.93,0008.56,0007.30
2022-10-18 00:25:00,,0830.9,5.00,0.00,30.4,29.2,00.0,39.2,32.3,12.1,0002.2,0020.51,0008.61,0007.28
2022-10-18 00:26:00,,0830.9,4.99,0.00,30.4,29.2,00.0,39.2,32.3,12.1,0002.4,0020.92,0008.61,0007.24
2022-10-18 00:27:00,,0830.9,5.00,0.00,30.5,29.2,00.0,39.2,32.3,12.1,0002.4,0020.20,0008.47,0007.21
2022-10-18 00:28:00,,0830.9,5.00,0.00,30.5,29.2,00.0,39.2,32.3,12.1,0002.1,0020.07,0008.41,0007.19
2022-10-18 00:29:00,,0830.9,5.00,0.00,30.5,29.3,00.0,39.2,32.3,12.0,0002.0,0019.08,0008.39,0007.15
2022-10-18 00:30:00,,0830.9,5.01,0.00,30.5,29.3,00.0,39.2,32.3,12.0,0002.2,0017.96,0008.39,0007.13
2022-10-18 00:31:00,,0830.9,5.00,0.00,30.5,29.3,00.0,39.2,32.4,12.0,0002.4,0017.94,0008.44,0007.12
2022-10-18 00:32:00,,0830.9,4.99,0.00,30.5,29.3,00.0,39.3,32.4,12.0,0003.2,0018.11,0008.46,0007.11
2022-10-18 00:33:00,,0831.0,5.00,0.00,30.6,29.3,00.0,39.3,32.4,11.9,0003.1,0018.11,0008.50,0007.09
2022-10-18 00:34:00,,0831.0,5.00,0.00,30.6,29.3,00.0,39.3,32.4,11.9,0002.6,0017.95,0008.55,0007.07
2022-10-18 00:35:00,,0831.0,5.00,0.00,30.6,28.8,00.0,39.3,32.3,11.8,0002.5,0017.35,0008.53,0007.05
2022-10-18 00:36:00,,0831.0,4.99,0.00,30.5,27.3,00.0,39.2,32.2,11.8,0002.1,0017.19,0008.47,0007.07
2022-10-18 00:37:00,,0831.0,5.00,0.00,30.4,26.8,00.0,39.1,32.1,11.9,0001.6,0017.33,0008.45,0007.09
2022-10-18 00:38:00,,0831.0,5.01,0.00,30.3,26.9,00.0,39.1,31.9,11.9,0001.8,0017.47,0008.46,0007.11
2022-10-18 00:39:00,,0831.0,5.00,0.00,30.2,27.2,00.0,39.1,31.9,12.0,0002.1,0018.67,0008.51,0007.12
2022-10-18 00:40:00,,0831.0,5.00,0.00,30.2,27.5,00.0,39.1,31.9,12.0,0002.1,0018.95,0008.47,0007.10
2022-10-18 00:41:00,,0831.1,5.01,0.00,30.2,27.8,00.0,39.0,31.9,12.0,0001.7,0019.58,0008.41,0007.08
2022-10-18 00:42:00,,0831.0,4.99,0.00,30.1,28.0,00.0,39.0,31.9,12.0,0001.0,0020.06,0008.38,0007.06
2022-10-18 00:43:00,,0831.0,4.99,0.00,30.1,28.2,00.0,39.0,31.9,12.0,0000.2,0020.17,0008.36,0007.03
2022-10-18 00:44:00,,0831.0,5.00,0.00,30.1,28.3,00.0,39.0,31.9,12.0,0000.3,0020.23,0008.30,0006.99
2022-10-18 00:45:00,,0831.1,5.01,0.00,30.1,28.4,00.0,39.0,31.9,12.0,0000.9,0020.42,0008.19,0006.96
2022-10-18 00:46:00,,0831.1,4.99,0.00,30.1,28.5,00.0,39.0,32.0,11.9,0000.9,0021.11,0008.19,0006.94
2022-10-18 00:47:00,,0831.1,5.00,0.00,30.1,28.6,00.0,39.0,32.0,12.0,0001.2,0021.07,0008.17,0006.91
2022-10-18 00:48:00,,0831.1,5.00,0.00,30.1,28.6,00.0,39.0,32.0,12.0,0001.4,0020.77,0008.14,0006.86
2022-10-18 00:49:00,,0831.1,5.00,0.00,30.1,28.7,00.0,39.0,32.0,12.0,0001.4,0021.02,0008.09,0006.82
2022-10-18 00:50:00,,0831.1,5.02,0.00,30.2,28.7,00.0,39.0,32.0,12.0,0001.5,0020.69,0008.11,0006.81
2022-10-18 00:51:00,,0831.2,4.99,0.00,30.2,28.8,00.0,39.0,32.0,11.9,0001.4,0020.98,0008.13,0006.81
2022-10-18 00:52:00,,0831.2,4.99,0.00,30.2,28.8,00.0,39.0,32.0,11.9,0002.8,0021.35,0008.13,0006.82
2022-10-18 00:53:00,,0831.2,5.00,0.00,30.2,28.8,00.0,39.0,32.0,11.9,0004.3,0020.98,0008.11,0006.81
2022-10-18 00:54:00,,0831.2,5.00,0.00,30.2,28.9,00.0,39.0,32.0,11.9,0004.6,0020.55,0008.08,0006.81
2022-10-18 00:55:00,,0831.2,5.00,0.00,30.2,28.9,00.0,39.0,32.1,11.9,0004.5,0020.49,0008.14,0006.82
2022-10-18 00:56:00,,0831.2,5.01,0.00,30.2,28.9,00.0,39.0,32.1,11.9,0004.6,0020.33,0008.18,0006.82
2022-10-18 00:57:00,,0831.2,5.00,0.00,30.2,28.9,00.0,39.0,32.1,11.9,0004.3,0020.96,0008.18,0006.82
2022-10-18 00:58:00,,0831.2,5.00,0.00,30.3,28.9,00.0,39.0,32.1,11.9,0004.2,0020.90,0008.16,0006.81
2022-10-18 00:59:00,,0831.2,4.99,0.00,30.3,28.9,00.0,39.0,32.1,12.0,0003.9,0020.97,0008.19,0006.82
